x

Mcbh Kaneohe Bay Hawaii (91176) Weather Station

10:57am - Sun 23rd Jul 2017 All times are HST. -10 hours from GMT.

  • Wind
    10mph, 21mph gusts
  • Air Temp 82°f
  • Sea Pressure 1015.2mb
  • Mcbh Kaneohe Bay Hawaii
  • Mcbh Kaneohe Bay Hawaii

More Historic Weather Station data

Upgrade to MSW Pro to gain access to the past 30 days of data for over 8000 Wavebouys and Weather Stations around the globe.

Join Pro

Comparision Forecast

View Surf forecast
   
Sun 07/23 10:57am 10 21 mph 1015.2mb 82f
9:57am 10 16 mph 1015.2mb 79f
8:57am 14 20 mph 1014.9mb 79f
7:57am 8 16 mph 1014.9mb 79f
6:57am 14 20 mph 1014.6mb 78f
6:49am 14 18 mph 1014.2mb 78f
5:57am 6
mph
1013.9mb 77f
2:03am 9 17 mph 1013.9mb 78f
1:57am 9
mph
1013.9mb 78f
Sat 07/22 10:57pm 6
mph
1015.6mb 78f
9:57pm 7
mph
1015.6mb 79f
8:57pm 6 16 mph 1014.9mb 80f
6:57pm 9 20 mph 1014.2mb 82f
5:57pm 9
mph
1013.9mb 84f
2:57pm 8 16 mph 1014.2mb 84f
12:57pm 14 22 mph 1014.9mb 84f
10:57am 13 17 mph 1015.6mb 83f
9:57am 8 18 mph 1015.6mb 83f
8:57am 10 18 mph 1015.9mb 81f
7:57am 10 21 mph 1015.6mb 81f
Fri 07/21 10:57pm 10 18 mph 1015.9mb 79f
8:57pm 12
mph
1015.9mb 80f
5:57pm 10 18 mph 1014.9mb 81f
4:57pm 12 18 mph 1014.6mb 82f
2:57pm 13 20 mph 1015.2mb 83f
1:57pm 10 18 mph 1015.9mb 84f
11:57am 12 18 mph 1016.6mb 85f
10:57am 12
mph
1017.3mb 85f
9:57am 13 21 mph 1017.6mb 83f
8:57am 9 20 mph 1017.6mb 78f
7:57am 10 20 mph 1017.6mb 81f
3:57am 10 17 mph 1015.9mb 70f
2:57am 10
mph
1016.3mb 79f
1:57am 10 22 mph 1016.6mb 77f
12:57am 12 18 mph 1017.3mb 80f
Thu 07/20 11:57pm 13 21 mph 1018mb 79f
10:57pm 10 17 mph 1018.3mb 80f
8:57pm 10 17 mph 1017.6mb 80f
7:57pm 10 18 mph 1017.3mb 80f
4:57pm 12 20 mph 1015.9mb 82f
2:57pm 14 24 mph 1016.6mb 83f
1:57pm 14 18 mph 1017.3mb 89f
12:57pm 12 21 mph 1017.6mb 84f
11:57am 15 24 mph 1018.3mb 83f
10:57am 14 21 mph 1018.6mb 89f
9:57am 10 23 mph 1018.6mb 82f
7:57am 8 17 mph 1018.6mb 71f
6:57am 9
mph
1018mb 77f